This is the latest recevied weather packets stored in our database for station/object AI5BL. If no packets are shown the sender has not sent any weather packets the latest 10 day(s).
| Time | Temp. | Humidity | Pressure | Rain* | Wind** | Luminosity | Snow |
|---|---|---|---|---|---|---|---|
| 1777948332 | 18.33° C | 70% | 1016.2 hPa | 0 mm | - | 0 W/m² | - |
| 1777948029 | 18.33° C | 71% | 1016.2 hPa | 0 mm | - | 0 W/m² | - |
| 1777947726 | 18.89° C | 69% | 1016.3 hPa | 0 mm | - | 0 W/m² | - |
| 1777947422 | 18.89° C | 69% | 1016 hPa | 0 mm | - | 0 W/m² | - |
| 1777947119 | 18.89° C | 67% | 1015.9 hPa | 0 mm | - | 0 W/m² | - |
| 1777946815 | 18.89° C | 67% | 1015.8 hPa | 0 mm | - | 0 W/m² | - |
| 1777946511 | 18.89° C | 71% | 1015.9 hPa | 0 mm | - | 0 W/m² | - |
| 1777946208 | 18.89° C | 69% | 1015.9 hPa | 0 mm | - | 0 W/m² | - |
| 1777945905 | 18.89° C | 69% | 1015.8 hPa | 0 mm | - | 0 W/m² | - |
| 1777945602 | 18.89° C | 69% | 1015.7 hPa | 0 mm | - | 0 W/m² | - |
| 1777945299 | 18.89° C | 70% | 1015.8 hPa | 0 mm | - | 0 W/m² | - |
| 1777944996 | 18.89° C | 72% | 1015.8 hPa | 0 mm | - | 0 W/m² | - |
| 1777944693 | 18.89° C | 71% | 1015.7 hPa | 0 mm | - | 0 W/m² | - |
| 1777944392 | 18.89° C | 70% | 1015.5 hPa | 0 mm | - | 0 W/m² | - |
| 1777944088 | 19.44° C | 70% | 1015.6 hPa | 0 mm | - | 0 W/m² | - |
| 1777943784 | 19.44° C | 69% | 1015.3 hPa | 0 mm | - | 0 W/m² | - |
| 1777943481 | 19.44° C | 70% | 1015.6 hPa | 0 mm | - | 0 W/m² | - |
| 1777943176 | 19.44° C | 71% | 1015.4 hPa | 0 mm | - | 0 W/m² | - |
| 1777942873 | 19.44° C | 71% | 1015.5 hPa | 0 mm | - | 0 W/m² | - |
| 1777942570 | 19.44° C | 67% | 1015.7 hPa | 0 mm | - | 0 W/m² | - |
| 1777942267 | 20° C | 65% | 1015.5 hPa | 0 mm | - | 0 W/m² | - |
| 1777941964 | 20° C | 64% | 1015.5 hPa | 0 mm | - | 1 W/m² | - |
| 1777941661 | 20.56° C | 64% | 1015.7 hPa | 0 mm | - | 1 W/m² | - |
| 1777941358 | 20.56° C | 62% | 1015.4 hPa | 0 mm | - | 3 W/m² | - |
| 1777941055 | 20.56° C | 60% | 1015.3 hPa | 0 mm | - | 5 W/m² | - |
* Rain latest hour (hover to see other rain measurements)
** Current wind speed in m/s (hover to see current wind gust speed)